User: anonymous   Login
Location: Ladrillo (historical)
(32.8195°N, 117.2231°W)
Time: 19:31:48
(UTC+00:00)
Language:

Tiros 1 - Orbit

View from above orbital plane
View from above orbital plane
View from above satellite
View from above satellite

Ground track
Ground track

The orbit data is extracted from the following two-line orbital elements,

1    29U 60002B   21062.95932534 -.00000061  00000-0  21785-4 0  9995
2    29  48.3795 163.8854 0024576 262.6083  97.2035 14.74408527256950
Epoch (UTC): 03 March 2021 23:01:25
Eccentricity: 0.0024576
inclination: 48.3795°
perigee height: 630 km
apogee height: 664 km
right ascension of ascending node: 163.8854°
argument of perigee: 262.6083°
revolutions per day: 14.74408527
mean anomaly at epoch: 97.2035°
orbit number at epoch: 25695

The dashed part of the orbit path shows where the satellite is in the earth's shadow,  

DLR